遥感四十三号01组-C (YAOGAN-43 O1C)

导读

YAOGAN-43 O1C(遥感四十三号01C星)是中国于2024年8月16日发射的遥感卫星。作为中国遥感卫星体系的组成部分,该卫星主要用于国土资源普查、农业估产、环境监测、灾害预警及城市规划等领域,将与其他遥感卫星组网,提升中国对地观测的覆盖范围与数据获取能力,为国民经济建设和科学研究提供空间信息支撑。

Basic Information
目录编号:
60460
目录名称:
YAOGAN-43 O1C
国际标识:
2024-148C
轨道中心:
EARTH
卫星名称:
遥感四十三号01组-C (YAOGAN-43 O1C)
卫星全名:
遥感四十三号01组-C (YAOGAN-43 O1C)
卫星状态:
在轨 (已飞行711 天)
发射日期:
2024-08-16 UTC
国别 :
中国 (CN)
星等 :
--
Orbit Information
数据来源 国际轨道数据 AOE轨道数据
星历时间 2026-07-28T04:38:23+0800
15小时前
查看轨道信息
2026-07-23T02:00:00+0800
5天前
查看轨道信息
半长轴 6874.646km 6874.947km
偏心率 0.0006232 0.000519
轨道倾角 34.998° 35.000°
近地点辐角 215.666° 172.104°
升交点赤经 266.720° 298.855°
平近点角 144.364° 203.686°
近地点 492.224km 493.241km
远地点 500.794km 500.379km
周期 94.544分钟 94.550分钟
每日圈数 15.230962 15.229962
Detailed Information
运营商:
中国空间技术研究院
运营商所在国:
中国
制造商(研发单位):
中国空间技术研究院
制造商所在国:
中国
使用方式:
暂无
Satellite Introduction
遥感四十三号卫星组分别由航天科技集团五院和八院等抓总研制,主要用于开展低轨星座系统新技术试验。
2D Orbit Map
3D Orbit Map
Orbit Altitude Analysis Chart
Orbit Inclination Analysis Chart
Orbit Comprehensive Analysis Chart
View Comprehensive Chart